Change the Weather History Date:

Friday, October 22, 2010

  Actual Average Record
Temperature  
Mean Temperature 48 °F 42 °F  
Max Temperature 68 °F 56 °F 81 °F (1992)
Min Temperature 28 °F 27 °F 3 °F (2002)
Degree Days  
Heating Degree Days 17 23  
Month to date heating degree days 291 418  
Since 1 July heating degree days 605 744  
Cooling Degree Days 0 0  
Month to date cooling degree days 0 0  
Year to date cooling degree days 367 420  
Moisture  
Dew Point 33 °F    
Average Humidity 61    
Maximum Humidity 92    
Minimum Humidity 29    
Precipitation  
Precipitation 0.00 in 0.02 in 1.29 in (1953)
Month to date precipitation 0.44 0.66  
Year to date precipitation 15.67 11.79  
Snow  
Snow 0.00 in - - ()
Month to date snowfall 0.0  
Since 1 July snowfall 0.0  
Since 1 September snowfall 0.0  
Snow Depth 0.00 in    
Sea Level Pressure  
Sea Level Pressure 29.83 in    
Wind  
Wind Speed 3 mph (NNW)    
Max Wind Speed 12 mph    
Max Gust Speed 15 mph    
T = Trace of Precipitation, MM = Missing Value Source: NWS Daily Summary

Daily Weather History Graph

Daily Weather History Graph

Search for Another Location

Airport or City:

Trip Planner

Search our weather history database for the weather conditions in past years. The results will help you decide how hot, cold, wet, or windy it might be!

Date:

Astronomy

Oct. 22, 2010 Rise Set
Actual Time 7:36 AM MDT 6:07 PM MDT
Civil Twilight 7:05 AM MDT 6:38 PM MDT
Nautical Twilight 6:29 AM MDT 7:14 PM MDT
Astronomical Twilight 5:53 AM MDT 7:49 PM MDT
Moon 5:33 PM MDT (10/22) 7:22 AM MDT (10/22)
Length of Visible Light 11h 33m
Length of Day
10h 30m
Full, 100% of the Moon is Illuminated
Oct 22
Full
Oct 22
Full
Oct 30
Last Quarter
Nov 5
New
Nov 13
First Quarter

Hourly Weather History & Observations

Time (MDT) Temp. Windchill Dew Point Humidity Pressure Visibility Wind Dir Wind Speed Gust Speed Precip Events Conditions
12:48 AM 34.0 °F 31.0 °F 30.9 °F 89% 29.80 in - West 3.5 mph - N/A   Unknown
1:48 AM 30.9 °F 25.2 °F 28.9 °F 92% 29.81 in - West 5.8 mph - N/A   Unknown
2:48 AM 30.9 °F 27.5 °F 28.9 °F 92% 29.81 in - WNW 3.5 mph - N/A   Unknown
3:48 AM 32.0 °F 27.5 °F 30.0 °F 92% 29.80 in - West 4.6 mph - N/A   Unknown
4:48 AM 30.0 °F 25.2 °F 28.0 °F 92% 29.81 in - West 4.6 mph - N/A   Unknown
5:48 AM 30.0 °F - 27.0 °F 88% 29.83 in - Calm Calm - N/A   Unknown
6:48 AM 28.9 °F - 27.0 °F 92% 29.86 in - Calm Calm - N/A   Unknown
7:48 AM 28.0 °F - 26.1 °F 92% 29.88 in - Calm Calm - N/A   Unknown
8:48 AM 33.1 °F - 30.9 °F 92% 29.89 in - Calm Calm - N/A   Unknown
9:48 AM 44.1 °F 42.5 °F 35.1 °F 71% 29.88 in - West 3.5 mph - N/A   Unknown
10:48 AM 54.0 °F - 37.0 °F 53% 29.86 in - Calm Calm - N/A   Unknown
11:48 AM 60.1 °F - 35.1 °F 39% 29.85 in - East 4.6 mph - N/A   Unknown
12:48 PM 64.0 °F - 34.0 °F 33% 29.83 in - East 5.8 mph - N/A   Unknown
1:48 PM 66.9 °F - 34.0 °F 30% 29.80 in - ENE 9.2 mph - N/A   Unknown
2:48 PM 66.9 °F - 34.0 °F 30% 29.79 in - NE 6.9 mph - N/A   Unknown
3:48 PM 66.0 °F - 36.0 °F 33% 29.78 in - East 8.1 mph - N/A   Unknown
4:48 PM 63.0 °F - 37.0 °F 38% 29.80 in - NE 6.9 mph - N/A   Unknown
5:48 PM 55.9 °F - 37.9 °F 51% 29.82 in - NNE 8.1 mph - N/A   Unknown
6:48 PM 52.0 °F - 36.0 °F 54% 29.83 in - Calm Calm - N/A   Unknown
7:48 PM 48.9 °F - 36.0 °F 61% 29.85 in - Calm Calm - N/A   Unknown
8:48 PM 44.1 °F - 35.1 °F 71% 29.84 in - Calm Calm - N/A   Unknown
9:48 PM 41.0 °F - 35.1 °F 79% 29.82 in - Calm Calm - N/A   Unknown
10:48 PM 37.9 °F 35.5 °F 34.0 °F 86% 29.82 in - West 3.5 mph - N/A   Unknown
11:48 PM 39.0 °F - 35.1 °F 86% 29.81 in - Calm Calm - N/A   Unknown